World > North America > United States > Texas > Pantego  

Pantego, TX Hourly Weather Forecast

Feedback E-mail the Weather

Quick Clicks

Weather World

24 Hour Forecast

Current Conditions - Overcast. Temperature is 62°F17°C, dew point 51°F11°C, humidity 67%. Wind direction is NNW at 12 mph19 km/h with visibility of 10 mi16 km. Barometric pressure is 30.12 in1019 mb.
Today - Mostly cloudy. Much cooler with highs in the lower 70s. North winds 5 to 10 mph... Full Forecast
Tonight - A chance of showers with a slight chance of thunderstorms in the evening, then showers with a chance of thunderstorms after midnig.. Full Forecast

Pantego Hourly Weather

24 Hour Weather Scroll
Fri, Apr 19
9:00 am
Fri, Apr 19
10:00 am
Fri, Apr 19
11:00 am
Fri, Apr 19
Noon
Fri, Apr 19
1:00 pm
Fri, Apr 19
2:00 pm
Fri, Apr 19
3:00 pm
Fri, Apr 19
4:00 pm
Fri, Apr 19
5:00 pm
Fri, Apr 19
6:00 pm
Fri, Apr 19
7:00 pm
Fri, Apr 19
8:00 pm
Fri, Apr 19
9:00 pm
Fri, Apr 19
10:00 pm
Fri, Apr 19
11:00 pm
Sat, Apr 20
Midnight
Sat, Apr 20
1:00 am
Sat, Apr 20
2:00 am
Sat, Apr 20
3:00 am
Sat, Apr 20
4:00 am
Sat, Apr 20
5:00 am
Sat, Apr 20
6:00 am
Sat, Apr 20
7:00 am
Sat, Apr 20
8:00 am
OvercastSunnySunnySunnySunnySunnySunnySunnyPartly Cloudy Partly Cloudy Partly Cloudy Partly Cloudy Cloudy Patchy Rain NearbyOvercast Overcast Light DrizzleLight Rain ShowerLight Rain ShowerLight Rain ShowerLight Rain ShowerLight Rain ShowerPatchy Rain NearbyLight Drizzle
Overcast Sunny Sunny Sunny Sunny Sunny Sunny Sunny Partly Cloudy Partly Cloudy Partly Cloudy Partly Cloudy Cloudy Patchy Rain Nearby Overcast Overcast Light Drizzle Light Rain Showers Light Rain Showers Light Rain Showers Light Rain Showers Light Rain Showers Patchy Rain Nearby Light Drizzle
59°F15°C 60°F15°C 62°F17°C 65°F18°C 67°F20°C 69°F21°C 71°F22°C 72°F22°C 72°F22°C 71°F22°C 70°F21°C 69°F20°C 68°F20°C 67°F19°C 66°F19°C 65°F19°C 65°F18°C 64°F18°C 63°F17°C 63°F17°C 62°F17°C 61°F16°C 60°F16°C 60°F15°C
45°F
7°C
45°F
7°C
46°F
8°C
47°F
8°C
48°F
9°C
49°F
10°C
50°F
10°C
51°F
11°C
52°F
11°C
52°F
11°C
53°F
12°C
55°F
13°C
57°F
14°C
58°F
15°C
58°F
15°C
58°F
14°C
57°F
14°C
58°F
15°C
58°F
15°C
59°F
15°C
59°F
15°C
59°F
15°C
58°F
15°C
58°F
14°C
30.12 in
1020 mb
30.15 in
1021 mb
30.15 in
1021 mb
30.15 in
1021 mb
30.12 in
1020 mb
30.09 in
1019 mb
30.06 in
1018 mb
30.03 in
1017 mb
30.03 in
1017 mb
30 in
1016 mb
30.03 in
1017 mb
30.03 in
1017 mb
30.06 in
1018 mb
30.09 in
1019 mb
30.06 in
1018 mb
30.06 in
1018 mb
30.06 in
1018 mb
30.06 in
1018 mb
30.06 in
1018 mb
30.09 in
1019 mb
30.09 in
1019 mb
30.09 in
1019 mb
30.12 in
1020 mb
30.12 in
1020 mb
72%60%56%53%50%48%47%46%48%51%55%61%69%75%77%77%77%82%84%88%91%93%93%93%
NNNENNENNENNENNENNENNENENENENEENEENEENEENEENEENENENEENEENENENE
12 mph
19 km/h
11 mph
18 km/h
9 mph
14 km/h
9 mph
15 km/h
10 mph
15 km/h
9 mph
14 km/h
8 mph
13 km/h
8 mph
13 km/h
7 mph
12 km/h
8 mph
13 km/h
7 mph
12 km/h
7 mph
11 km/h
7 mph
11 km/h
7 mph
12 km/h
8 mph
13 km/h
8 mph
13 km/h
8 mph
13 km/h
7 mph
11 km/h
7 mph
11 km/h
6 mph
10 km/h
8 mph
13 km/h
9 mph
14 km/h
10 mph
17 km/h
11 mph
18 km/h
0%0%0%0%0%0%0%0%0%0%0%0%0%75%0%0%100%100%100%100%100%100%100%100%
10 mi
16 km
6 mi
10 km
6 mi
10 km
6 mi
10 km
6 mi
10 km
6 mi
10 km
6 mi
10 km
6 mi
10 km
6 mi
10 km
6 mi
10 km
6 mi
10 km
6 mi
10 km
6 mi
10 km
6 mi
10 km
6 mi
10 km
6 mi
10 km
1 mi
2 km
6 mi
10 km
6 mi
10 km
6 mi
10 km
6 mi
10 km
6 mi
10 km
6 mi
10 km
1 mi
2 km

Day/Time
Weather
Condition
Temperature
Dew Point
Pressure
Humidity
Wind Direction
Wind Speed
Prob Precip %
Visibility
POP = Probability of Precipitation. ** Indicates missing data/values from KGKY model statistics.

Trending Headlines

Trending Entertainment Headlines

Pantego Radar Loop

Use the map search tool if you want to place a location marker on the radar map...

48 Hour API Forecast

Prob Precip % = Probability of Precipitation.

Pantego 36 Hour Forecast

POP = Probability of Precipitation. ** Indicates missing data/values from model statistics.

E-mail the Pantego Weather Forecast

Voice your opinion or tell us about page issues...

Pantego TX Weather - 10:45 am

What are people saying?

Contact Us